• In Switzerland
  • List of Countries
  • For 7 days
  • Water Temperature
  • Satellite Maps
  • Weather Map
  • Weather Widgets
  • user-avatar
    Login

    Hourly Weather Chubarovo

    Today, 24 May, Thursday

    Time Temperature Precipitation Wind Pressure Humidity
    00:00 +16°C° 0.5 mm 0 mps 754 mmHg 92%
    01:00 +18°C° 0.5 mm 1 mps 753 mmHg 93%
    02:00 +18°C° 0.5 mm 1 mps 753 mmHg 94%
    03:00 +18°C° 0 mm 1 mps 753 mmHg 95%
    04:00 +18°C° 1 mm 1 mps 753 mmHg 95%
    05:00 +18°C° 1 mm 1 mps 753 mmHg 95%
    06:00 +17°C° 1 mm 2 mps 752 mmHg 95%
    07:00 +18°C° 1 mm 2 mps 752 mmHg 94%
    08:00 +18°C° 1 mm 2 mps 752 mmHg 93%
    09:00 +19°C° 0 mm 2 mps 752 mmHg 91%
    10:00 +19°C° 1 mm 2 mps 752 mmHg 90%
    11:00 +19°C° 1 mm 3 mps 752 mmHg 89%
    12:00 +20°C° 1 mm 3 mps 752 mmHg 87%
    13:00 +20°C° 0.4 mm 3 mps 752 mmHg 86%
    14:00 +20°C° 0.4 mm 3 mps 751 mmHg 85%
    15:00 +20°C° 0.4 mm 4 mps 751 mmHg 84%
    16:00 +20°C° 0.2 mm 3 mps 751 mmHg 83%
    17:00 +20°C° 0.2 mm 3 mps 751 mmHg 83%
    18:00 +20°C° 0.2 mm 3 mps 750 mmHg 83%
    19:00 +19°C° 0.2 mm 3 mps 750 mmHg 85%
    20:00 +18°C° 0.2 mm 3 mps 750 mmHg 87%
    21:00 +17°C° 0.2 mm 4 mps 750 mmHg 90%
    22:00 +15°C° 0 mm 4 mps 750 mmHg 89%
    23:00 +15°C° 0 mm 4 mps 750 mmHg 88%

    Tomorrow, 25 May, Friday

    Time Temperature Precipitation Wind Pressure Humidity
    00:00 +14°C° 0 mm 4 mps 750 mmHg 87%
    01:00 +14°C° 0 mm 4 mps 750 mmHg 88%
    02:00 +13°C° 0 mm 4 mps 751 mmHg 88%
    03:00 +13°C° 0 mm 4 mps 751 mmHg 89%
    04:00 +13°C° 0 mm 5 mps 751 mmHg 88%
    05:00 +13°C° 0 mm 6 mps 752 mmHg 88%
    06:00 +13°C° 0 mm 6 mps 752 mmHg 87%
    07:00 +14°C° 0 mm 7 mps 753 mmHg 79%
    08:00 +15°C° 0 mm 7 mps 753 mmHg 72%
    09:00 +15°C° 0 mm 7 mps 754 mmHg 64%
    10:00 +16°C° 0 mm 7 mps 754 mmHg 59%
    11:00 +16°C° 0 mm 7 mps 754 mmHg 54%
    12:00 +17°C° 0 mm 7 mps 755 mmHg 49%
    13:00 +17°C° 0 mm 7 mps 755 mmHg 48%
    14:00 +17°C° 0 mm 7 mps 755 mmHg 48%
    15:00 +17°C° 0 mm 7 mps 755 mmHg 47%
    16:00 +16°C° 0 mm 6 mps 756 mmHg 50%
    17:00 +16°C° 0 mm 5 mps 756 mmHg 53%
    18:00 +15°C° 0 mm 5 mps 756 mmHg 56%
    19:00 +13°C° 0 mm 4 mps 757 mmHg 58%
    20:00 +12°C° 0 mm 4 mps 757 mmHg 60%
    21:00 +10°C° 0 mm 3 mps 758 mmHg 63%
    22:00 +9°C° 0 mm 3 mps 759 mmHg 64%
    23:00 +9°C° 0 mm 3 mps 759 mmHg 65%

    Day after tomorrow, 26 May, Saturday

    Time Temperature Precipitation Wind Pressure Humidity
    00:00 +8°C° 0 mm 3 mps 760 mmHg 66%
    01:00 +7°C° 0 mm 3 mps 760 mmHg 67%
    02:00 +7°C° 0 mm 3 mps 760 mmHg 68%
    03:00 +6°C° 0 mm 2 mps 761 mmHg 69%
    04:00 +6°C° 0 mm 2 mps 761 mmHg 68%
    05:00 +7°C° 0 mm 3 mps 762 mmHg 66%
    06:00 +8°C° 0 mm 3 mps 762 mmHg 65%
    07:00 +9°C° 0 mm 3 mps 763 mmHg 59%
    08:00 +11°C° 0 mm 3 mps 763 mmHg 52%
    09:00 +13°C° 0 mm 4 mps 763 mmHg 46%
    10:00 +14°C° 0 mm 4 mps 763 mmHg 45%
    11:00 +15°C° 0 mm 4 mps 763 mmHg 43%
    12:00 +17°C° 0 mm 3 mps 764 mmHg 41%
    13:00 +17°C° 0 mm 3 mps 763 mmHg 41%
    14:00 +18°C° 0 mm 3 mps 763 mmHg 40%
    15:00 +18°C° 0 mm 2 mps 763 mmHg 39%
    16:00 +18°C° 0 mm 2 mps 763 mmHg 42%
    17:00 +19°C° 0 mm 1 mps 762 mmHg 46%
    18:00 +19°C° 0 mm 1 mps 762 mmHg 49%
    19:00 +16°C° 0 mm 1 mps 762 mmHg 52%
    20:00 +14°C° 0 mm 1 mps 762 mmHg 56%
    21:00 +12°C° 0 mm 1 mps 762 mmHg 60%
    22:00 +11°C° 0 mm 1 mps 763 mmHg 61%
    23:00 +10°C° 0 mm 2 mps 763 mmHg 63%

    27 May, Sunday

    Time Temperature Precipitation Wind Pressure Humidity
    00:00 +9°C° 0 mm 2 mps 763 mmHg 65%
    01:00 +9°C° 0 mm 2 mps 763 mmHg 67%
    02:00 +8°C° 0 mm 2 mps 763 mmHg 69%
    03:00 +8°C° 0 mm 2 mps 763 mmHg 71%
    04:00 +9°C° 0 mm 2 mps 763 mmHg 71%
    05:00 +9°C° 0 mm 3 mps 763 mmHg 71%
    06:00 +10°C° 0 mm 3 mps 763 mmHg 71%
    07:00 +12°C° 0 mm 3 mps 763 mmHg 66%
    08:00 +14°C° 0 mm 3 mps 762 mmHg 62%
    09:00 +17°C° 0 mm 4 mps 762 mmHg 57%
    10:00 +18°C° 0 mm 4 mps 762 mmHg 54%
    11:00 +19°C° 0 mm 4 mps 761 mmHg 52%
    12:00 +19°C° 0 mm 4 mps 761 mmHg 50%
    13:00 +20°C° 0 mm 4 mps 760 mmHg 50%
    14:00 +20°C° 0 mm 5 mps 760 mmHg 51%
    15:00 +20°C° 0 mm 5 mps 759 mmHg 51%
    16:00 +20°C° 0 mm 5 mps 759 mmHg 55%
    17:00 +19°C° 0 mm 4 mps 758 mmHg 58%
    18:00 +19°C° 0 mm 4 mps 757 mmHg 62%
    19:00 +17°C° 0 mm 4 mps 757 mmHg 67%
    20:00 +15°C° 0 mm 4 mps 757 mmHg 72%
    21:00 +13°C° 0 mm 3 mps 757 mmHg 77%
    22:00 +13°C° 0 mm 3 mps 757 mmHg 77%
    23:00 +12°C° 0 mm 4 mps 756 mmHg 77%

    28 May, Monday

    Time Temperature Precipitation Wind Pressure Humidity
    00:00 +12°C° 0 mm 4 mps 756 mmHg 77%
    01:00 +12°C° 0 mm 3 mps 756 mmHg 78%
    02:00 +12°C° 0 mm 3 mps 756 mmHg 78%
    03:00 +12°C° 0 mm 3 mps 756 mmHg 78%
    04:00 +12°C° 0 mm 3 mps 756 mmHg 80%
    05:00 +12°C° 0 mm 3 mps 756 mmHg 82%
    06:00 +13°C° 0 mm 3 mps 756 mmHg 84%
    07:00 +14°C° 0 mm 3 mps 757 mmHg 76%
    08:00 +17°C° 0 mm 4 mps 757 mmHg 69%
    09:00 +18°C° 0 mm 4 mps 757 mmHg 62%
    10:00 +17°C° 0 mm 5 mps 758 mmHg 56%
    11:00 +19°C° 0 mm 5 mps 758 mmHg 50%
    12:00 +19°C° 0 mm 6 mps 758 mmHg 44%
    13:00 +19°C° 0 mm 6 mps 758 mmHg 42%
    14:00 +17°C° 0 mm 6 mps 759 mmHg 41%
    15:00 +17°C° 0 mm 5 mps 759 mmHg 40%
    16:00 +17°C° 0 mm 5 mps 759 mmHg 43%
    17:00 +17°C° 0 mm 4 mps 759 mmHg 47%
    18:00 +17°C° 0 mm 4 mps 759 mmHg 51%
    19:00 +14°C° 0 mm 3 mps 760 mmHg 55%
    20:00 +12°C° 0 mm 3 mps 760 mmHg 59%
    21:00 +10°C° 0 mm 2 mps 760 mmHg 63%
    22:00 +9°C° 0 mm 2 mps 761 mmHg 64%
    23:00 +8°C° 0 mm 2 mps 761 mmHg 65%

    29 May, Tuesday

    Time Temperature Precipitation Wind Pressure Humidity
    00:00 +8°C° 0 mm 2 mps 761 mmHg 66%
    01:00 +8°C° 0 mm 2 mps 761 mmHg 67%
    02:00 +7°C° 0 mm 2 mps 761 mmHg 68%
    03:00 +7°C° 0 mm 2 mps 762 mmHg 70%
    04:00 +8°C° 0 mm 2 mps 762 mmHg 69%
    05:00 +9°C° 0 mm 2 mps 762 mmHg 69%
    06:00 +10°C° 0 mm 3 mps 762 mmHg 68%
    07:00 +12°C° 0 mm 3 mps 762 mmHg 62%
    08:00 +14°C° 0 mm 4 mps 762 mmHg 56%
    09:00 +17°C° 0 mm 4 mps 761 mmHg 51%
    10:00 +17°C° 0 mm 5 mps 761 mmHg 48%
    11:00 +20°C° 0 mm 5 mps 761 mmHg 46%
    12:00 +21°C° 0 mm 5 mps 760 mmHg 44%
    13:00 +22°C° 0 mm 5 mps 760 mmHg 44%
    14:00 +23°C° 0 mm 5 mps 760 mmHg 44%
    15:00 +23°C° 0 mm 5 mps 759 mmHg 44%
    16:00 +23°C° 0 mm 5 mps 759 mmHg 48%
    17:00 +22°C° 0 mm 4 mps 758 mmHg 52%
    18:00 +22°C° 0 mm 3 mps 758 mmHg 56%
    19:00 +20°C° 0 mm 3 mps 758 mmHg 62%
    20:00 +18°C° 0 mm 3 mps 758 mmHg 67%
    21:00 +16°C° 0 mm 3 mps 757 mmHg 73%
    22:00 +14°C° 0 mm 3 mps 757 mmHg 75%
    23:00 +14°C° 0 mm 3 mps 757 mmHg 77%
    Show more